Chicago, Illinois, United States (60601)
Lat: 41.85N, Lon: 87.65W
Wx Zone: ILZ014
Local Info
Past Weather Observations for Saturday, November 22, 2014

NOTE: This archive is for the closest National Weather Service station to Chicago. Information may differ from the station used for current weather conditions.

Click here for Long-term Archive

Time Weather Temperature Dewpoint Humidity Pressure Winds Precip Visibility
23:53
Overcast
52°F / 11°C 46°F / 8°C 82% 29.89 in
(1012 mb)
SSE 12.7 mph
(SSE 20 kph)
- 10SM
22:53
Overcast
54°F / 12°C 46°F / 8°C 77% 29.86 in
(1011 mb)
SW 12.7 mph
(SW 20 kph)
- 8SM
21:53
Overcast
54°F / 12°C 46°F / 8°C 77% 29.89 in
(1012 mb)
SW 12.7 mph
(SW 20 kph)
- 10SM
21:03
Overcast
52°F / 11°C 46°F / 8°C 82% 29.89 in
(1012 mb)
SW 10.4 mph
(SW 17 kph)
- 10SM
20:53
Mostly Cloudy
54°F / 12°C 46°F / 8°C 77% 29.89 in
(1012 mb)
SW 11.5 mph
(SW 19 kph)
- 10SM
19:53
Mostly Cloudy
54°F / 12°C 46°F / 8°C 77% 29.89 in
(1012 mb)
SSE 12.7 mph
(SSE 20 kph)
- 10SM
18:53
Overcast
54°F / 12°C 46°F / 8°C 77% 29.89 in
(1012 mb)
SW 13.8 mph
(SW 22 kph)
- 10SM
18:27
Overcast
54°F / 12°C 46°F / 8°C 77% 29.89 in
(1012 mb)
SSE 12.7 mph
(SSE 20 kph)
- 10SM
17:53
Mostly Cloudy
54°F / 12°C 46°F / 8°C 77% 29.89 in
(1012 mb)
SSE 9.2 mph
(SSE 15 kph)
- 10SM
17:08
Overcast
54°F / 12°C 46°F / 8°C 77% 29.89 in
(1012 mb)
SSE 10.4 mph
(SSE 17 kph)
- 10SM
16:53
Overcast
52°F / 11°C 46°F / 8°C 82% 29.89 in
(1012 mb)
SW 11.5 mph
(SW 19 kph)
- 10SM
15:53
Overcast
52°F / 11°C 46°F / 8°C 82% 29.89 in
(1012 mb)
SW 8.1 mph
(SW 13 kph)
- 10SM
14:53
Overcast
50°F / 10°C 45°F / 7°C 82% 29.89 in
(1012 mb)
SW 11.5 mph
(SW 19 kph)
- 10SM
13:53
Overcast
50°F / 10°C 43°F / 6°C 76% 29.89 in
(1012 mb)
SW 16.1 mph
(SW 26 kph)
- 10SM
12:53
Overcast
46°F / 8°C 41°F / 5°C 82% 29.92 in
(1013 mb)
SSE 13.8 mph
(SSE 22 kph)
- 10SM
11:53
Overcast
45°F / 7°C 39°F / 4°C 81% 29.95 in
(1014 mb)
SSE 8.1 mph
(SSE 13 kph)
- 10SM
10:53
Overcast
43°F / 6°C 37°F / 3°C 81% 29.98 in
(1015 mb)
SSE 11.5 mph
(SSE 19 kph)
- 10SM
09:53
Overcast
41°F / 5°C 37°F / 3°C 87% 30.01 in
(1016 mb)
SSE 10.4 mph
(SSE 17 kph)
- 10SM
08:53
Overcast
Fog And Mist
39°F / 4°C 36°F / 2°C 87% 30.04 in
(1017 mb)
SSE 9.2 mph
(SSE 15 kph)
- 6SM
07:53
Overcast
Fog And Mist
37°F / 3°C 36°F / 2°C 93% 30.04 in
(1017 mb)
SW 11.5 mph
(SW 19 kph)
- 3SM
07:39
Overcast
Fog And Mist
37°F / 3°C 36°F / 2°C 93% 30.04 in
(1017 mb)
SSE 10.4 mph
(SSE 17 kph)
- 3SM
07:16
Overcast
Fog And Mist
37°F / 3°C 36°F / 2°C 93% 30.04 in
(1017 mb)
SSE 11.5 mph
(SSE 19 kph)
- 1 1/2SM
06:53
Overcast
Fog And Mist
37°F / 3°C 36°F / 2°C 93% 30.06 in
(1018 mb)
SSE 12.7 mph
(SSE 20 kph)
0.01 in
(0.25 mm)
2SM
05:53
Overcast
Fog And Mist
37°F / 3°C 34°F / 1°C 87% 30.06 in
(1018 mb)
SW 12.7 mph
(SW 20 kph)
0.02 in
(0.51 mm)
2SM
04:53
Overcast
Drizzle
36°F / 2°C 34°F / 1°C 93% 30.09 in
(1019 mb)
SW 11.5 mph
(SW 19 kph)
0.02 in
(0.51 mm)
2SM
03:53
Overcast
Light Rain
36°F / 2°C 32°F / 0°C 87% 30.09 in
(1019 mb)
SSE 12.7 mph
(SSE 20 kph)
0.00 in
(0.00 mm)
2SM
03:34
Overcast
Drizzle
36°F / 2°C 30°F / -1°C 81% 30.09 in
(1019 mb)
SSE 12.7 mph
(SSE 20 kph)
0.00 in
(0.00 mm)
1 3/4SM
03:08
Overcast
Fog And Mist
36°F / 2°C 30°F / -1°C 81% 30.12 in
(1020 mb)
SSE 11.5 mph
(SSE 19 kph)
- 2 1/2SM
02:53
Overcast
Fog And Mist
34°F / 1°C 28°F / -2°C 81% 30.12 in
(1020 mb)
SW 12.7 mph
(SW 20 kph)
- 3SM
02:41
Overcast
Hazy
36°F / 2°C 28°F / -2°C 75% 30.12 in
(1020 mb)
SW 13.8 mph
(SW 22 kph)
- 5SM
01:53
Overcast
36°F / 2°C 23°F / -5°C 60% 30.12 in
(1020 mb)
SSE 16.1 mph
(SSE 26 kph)
0.00 in
(0.00 mm)
9SM
00:53
Overcast
37°F / 3°C 16°F / -9°C 41% 30.15 in
(1021 mb)
S 13.8 mph
(S 22 kph)
0.00 in
(0.00 mm)
10SM
Time Weather Temperature Dewpoint Humidity Pressure Winds Precip Visibility


Weather for websites

WeatherForYou.com, LLC is not responsible for any damages or problems caused by this service. Current weather conditions are obtained from the closest station including government and personal stations which may have varying degrees of accuracy. Weather forecasts are derived from the NOAA NDFD. Like all things, this site belongs to Jesus Christ... He just trusts me to maintain it. If you have any questions or comments email webmaster@weatherforyou.com

Copyright © 2014, WeatherForYou.com LLC. All rights reserved.